Regional Weather Roundup
Issued by NWS

Home | Current Version | Previous Version | Graphics & Text | Print | Product List | Glossary On
Versions: 1 2 3 4 5 6 7 8 9 10 11 12 13 14 15 16 17 18 19 20 21 22 23 24 25 26 27 28 29 30 31 32 33 34 35 36 37 38 39 40 41 42 43 44 45 46 47 48 49 50
000
ASUS43 KBIS 310010
RWRND

NORTH DAKOTA REGIONAL WEATHER ROUNDUP
NATIONAL WEATHER SERVICE BISMARCK ND
700 PM CDT SUN AUG 30 2015

NOTE: "FAIR" INDICATES FEW OR NO CLOUDS BELOW 12,000 FEET WITH NO
SIGNIFICANT WEATHER AND/OR OBSTRUCTIONS TO VISIBILITY.


NDZ001>003-009>011-017-310100-
NORTHWEST NORTH DAKOTA

CITY           SKY/WX    TMP DP  RH WIND       PRES   REMARKS
WILLISTON      MOSUNNY   83  45  26 NE10      29.71S
6HR MIN TEMP:  83; 6HR MAX TEMP:  87;

MINOT          CLOUDY    80  57  45 W8        29.65S HAZE
MINOT AFB      PTSUNNY   84  60  43 NW8       29.64S
$$

NDZ018>021-031>035-040>046-310100-
SOUTHWEST NORTH DAKOTA

CITY           SKY/WX    TMP DP  RH WIND       PRES   REMARKS
BISMARCK       MOSUNNY   96  57  27 CALM      29.63S HX  95
6HR MIN TEMP:  86; 6HR MAX TEMP:  98;

GARRISON         N/A     83  58  42 N13       29.67S
6HR MIN TEMP:  83; 6HR MAX TEMP:  94;

HETTINGER ARPT MOSUNNY   92  49  22 N6        29.73S
$$

NDZ004>008-012>016-024-026-027-054-310100-
NORTHEAST NORTH DAKOTA

CITY           SKY/WX    TMP DP  RH WIND       PRES   REMARKS
GRAND FORKS    CLOUDY    84  68  58 S17G23    29.65F
GRND FRKS AFB  CLOUDY    83  71  66 S14       29.66F
DEVILS LAKE    PTSUNNY   82  66  57 SE16      29.61F
$$

NDZ022-023-025-028>030-036>039-047>053-310100-
SOUTHEAST NORTH DAKOTA

CITY           SKY/WX    TMP DP  RH WIND       PRES   REMARKS
FARGO          MOSUNNY   84  68  58 S18G25    29.71F
6HR MIN TEMP:  82; 6HR MAX TEMP:  88;

JAMESTOWN      PTSUNNY   82  67  60 S15       29.69R
$$




USA.gov is the U.S. government's official web portal to all federal, state and local government web resources and services.